Location: Hains Lake
(37.8540°N, 99.8578°W)
Time: 04:37:33
(UTC+00:00)

Vanguard 2 Rocket - Pass Details

Date: 27 April 2021
Orbit: 553 x 3326 km, 32.9° (Epoch: 07 May)

Event Time Altitude Azimuth Distance (km) Brightness Sun altitude
Rises 22:43:07 0° 280° (W) 6,809 12.4 31.0°
Reaches altitude 10° 22:47:26 10° 277° (W) 6,003 12.6 30.1°
Maximum altitude 23:06:41 58° 205° (SSW) 3,628 10.6 26.4°
Drops below altitude 10° 23:23:46 10° 132° (SE) 5,391 10.5 23.0°
Sets 23:27:25 0° 128° (SE) 6,108 10.7 22.3°
